User: anonymous   Login
Location: Kalberh�ni
(46.4610°N, 7.2453°E)
Time: 07:31:53
(UTC+00:00)
Language:

Cosmos 1816 Rocket - Orbit

View from above orbital plane
View from above orbital plane
View from above satellite
View from above satellite

Ground track
Ground track

The orbit data is extracted from the following two-line orbital elements,

1 17360U 87009B   21263.88981292  .00000017  00000-0  11295-5 0  9993
2 17360  82.9228 187.5471 0032825 156.3547 269.7133 13.76759747740192
Epoch (UTC): 20 September 2021 21:21:19
Eccentricity: 0.0032825
inclination: 82.9228°
perigee height: 951 km
apogee height: 999 km
right ascension of ascending node: 187.5471°
argument of perigee: 156.3547°
revolutions per day: 13.76759747
mean anomaly at epoch: 269.7133°
orbit number at epoch: 74019

The dashed part of the orbit path shows where the satellite is in the earth's shadow,  

DLR